Change the Weather History Date:

Wednesday, June 5, 2013

  Actual Average Record
Temperature  
Mean Temperature 68 °F 60 °F  
Max Temperature 82 °F 71 °F 94 °F (1882)
Min Temperature 53 °F 49 °F 35 °F (1976)
Degree Days  
Heating Degree Days 0 6  
Month to date heating degree days 24 32  
Since 1 June heating degree days 24 32  
Since 1 July heating degree days 6124 6489  
Cooling Degree Days 3 1  
Month to date cooling degree days 3 5  
Year to date cooling degree days 33 19  
Since 1 June cooling degree days 3 5  
Growing Degree Days 18 (Base 50)    
Moisture  
Dew Point 44 °F    
Average Humidity 47    
Maximum Humidity 71    
Minimum Humidity 23    
Precipitation  
Precipitation 0.00 in 0.05 in 0.52 in (1905)
Month to date precipitation 0.10 0.28  
Year to date precipitation 5.03 7.91  
Snow  
Snow 0.00 in 0.00 in 0.00 in (2002)
Month to date snowfall 0.0 0.0  
Since 1 June snowfall 0.0 0.0  
Since 1 July snowfall 43.5 44.9  
Snow Depth 0.00 in    
Sea Level Pressure  
Sea Level Pressure 29.99 in    
Wind  
Wind Speed 7 mph (SSW)    
Max Wind Speed 18 mph    
Max Gust Speed 30 mph    
Visibility 10 miles    
Events      
T = Trace of Precipitation, MM = Missing Value Source: NWS Daily Summary

Daily Weather History Graph

Daily Weather History Graph

Search for Another Location

Airport or City:

Trip Planner

Search our weather history database for the weather conditions in past years. The results will help you decide how hot, cold, wet, or windy it might be!

Date:

Astronomy

Jun. 05, 2013 Rise Set
Actual Time 4:54 AM PDT 8:43 PM PDT
Civil Twilight 4:14 AM PDT 9:23 PM PDT
Nautical Twilight 3:19 AM PDT 10:18 PM PDT
Astronomical Twilight 1:59 AM PDT 11:39 PM PDT
Moon 3:11 AM PDT (6/5) 6:06 PM PDT (6/5)
Length of Visible Light 17h 09m
Length of Day
15h 49m
Waning Crescent, 7% of the Moon is Illuminated
Jun 5
Waning Crescent
Jun 8
New
Jun 16
First Quarter
Jun 23
Full
Jun 29
Last Quarter

Hourly Weather History & Observations

Time (PDT) Temp. Dew Point Humidity Pressure Visibility Wind Dir Wind Speed Gust Speed Precip Events Conditions
12:53 AM 57.0 °F 44.1 °F 62% 30.04 in 10.0 mi Calm Calm - N/A   Clear
1:53 AM 55.9 °F 45.0 °F 67% 30.04 in 10.0 mi Calm Calm - N/A   Clear
2:53 AM 55.9 °F 45.0 °F 67% 30.04 in 10.0 mi Calm Calm - N/A   Clear
3:53 AM 55.9 °F 44.1 °F 64% 30.03 in 10.0 mi ESE 3.5 mph - N/A   Partly Cloudy
4:53 AM 53.1 °F 44.1 °F 71% 30.04 in 10.0 mi Calm Calm - N/A   Scattered Clouds
5:53 AM 55.9 °F 44.1 °F 64% 30.03 in 10.0 mi Calm Calm - N/A   Scattered Clouds
6:53 AM 57.0 °F 44.1 °F 62% 30.04 in 10.0 mi East 4.6 mph - N/A   Scattered Clouds
7:53 AM 59.0 °F 45.0 °F 60% 30.04 in 10.0 mi ESE 4.6 mph - N/A   Partly Cloudy
8:53 AM 64.0 °F 46.0 °F 52% 30.04 in 10.0 mi ESE 3.5 mph - N/A   Scattered Clouds
9:53 AM 69.1 °F 46.0 °F 44% 30.04 in 10.0 mi ESE 3.5 mph - N/A   Scattered Clouds
10:53 AM 73.0 °F 44.1 °F 35% 30.03 in 10.0 mi Variable 4.6 mph - N/A   Scattered Clouds
11:53 AM 75.0 °F 41.0 °F 29% 30.03 in 10.0 mi Variable 6.9 mph - N/A   Scattered Clouds
12:53 PM 77.0 °F 42.1 °F 29% 30.01 in 10.0 mi Variable 5.8 mph - N/A   Scattered Clouds
1:53 PM 79.0 °F 41.0 °F 26% 29.99 in 10.0 mi SW 13.8 mph - N/A   Mostly Cloudy
2:53 PM 80.1 °F 42.1 °F 26% 29.97 in 10.0 mi WSW 13.8 mph 20.7 mph N/A   Mostly Cloudy
3:53 PM 79.0 °F 44.1 °F 29% 29.96 in 10.0 mi SSW 13.8 mph - N/A   Mostly Cloudy
4:53 PM 82.0 °F 41.0 °F 23% 29.95 in 10.0 mi West 18.4 mph 21.9 mph N/A   Mostly Cloudy
5:53 PM 81.0 °F 42.1 °F 25% 29.93 in 10.0 mi West 11.5 mph - N/A   Mostly Cloudy
6:53 PM 79.0 °F 42.1 °F 27% 29.92 in 10.0 mi WSW 11.5 mph - N/A   Mostly Cloudy
7:53 PM 77.0 °F 44.1 °F 31% 29.92 in 10.0 mi SW 6.9 mph - N/A   Mostly Cloudy
8:53 PM 73.0 °F 44.1 °F 35% 29.91 in 10.0 mi South 6.9 mph - N/A   Mostly Cloudy
9:53 PM 71.1 °F 44.1 °F 38% 29.92 in 10.0 mi SSW 8.1 mph - N/A   Mostly Cloudy
10:53 PM 66.0 °F 46.0 °F 48% 29.93 in 10.0 mi SW 5.8 mph - N/A   Mostly Cloudy
11:53 PM 64.9 °F 46.0 °F 50% 29.92 in 10.0 mi SW 10.4 mph - N/A   Scattered Clouds